Regional Weather Roundup
Issued by NWS

Home | Current Version | Previous Version | Graphics & Text | Print | Product List | Glossary On
Versions: 1 2 3 4 5 6 7 8 9 10 11 12 13 14 15 16 17 18 19 20 21 22 23 24 25 26 27 28 29 30 31 32 33 34 35 36 37 38 39 40 41 42 43 44 45 46 47 48 49 50
899
ASUS44 KJAN 252110
RWRMS

MISSISSIPPI HOURLY WEATHER ROUNDUP
NATIONAL WEATHER SERVICE JACKSON MS
400 PM CDT FRI JUL 25 2014

NOTE: "FAIR: INDICATES FEW OR NO CLOUDS BELOW 12,000 FEET WITH NO
SIGNIFICANT WEATHER AND/OR OBSTRUCTIONS TO VISIBILITY.

MSZ001>002-007>008-010>013-018>021-025>028-034>036-252200-
NORTHWEST MISSISSIPPI

CITY           SKY/WX    TMP DP  RH WIND       PRES   REMARKS
CLARKSDALE     FAIR      84  68  58 CALM      30.01F
CLEVELAND      FAIR      84  72  66 N3        30.00S HX  90
GREENWOOD      SUNNY     86  62  44 NE5       30.01S
GREENVILLE     SUNNY     89  67  47 N7        30.00F HX  92
GRENADA        FAIR      84  63  48 NW5       30.01S
OLIVE BRANCH   MOSUNNY   84  64  51 CALM      30.01F
OXFORD         FAIR      82  63  51 NW3       30.03F
TUNICA         CLEAR     84  63  48 SW3       30.00F
$$

MSZ003>006-009-014>017-022>024-029>033-037>039-252200-
NORTHEAST MISSISSIPPI

CITY           SKY/WX    TMP DP  RH WIND       PRES   REMARKS
BELMONT        FAIR      83  65  55 CALM      30.01F
COLUMBUS AFB   SUNNY     85  62  45 NW6       30.01F
CORINTH        FAIR      82  59  44 N5        30.00F
GOLDN TRIANGLE MOSUNNY   88  66  48 NW5       30.02S HX  90
STARKVILLE     FAIR      84  63  48 NW5       30.01F
TUPELO         MOSUNNY   85  64  49 NE8       30.00F
$$

MSZ040-058-252200-
CENTRAL MISSISSIPPI

CITY           SKY/WX    TMP DP  RH WIND       PRES   REMARKS
JACKSON INTL   PTSUNNY   90  72  55 N12       30.00S HX  97
JACKSON HAWKNS MOSUNNY   89  70  53 N8        30.01S HX  94
MERIDIAN KEY   MOSUNNY   91  68  46 W7        29.98F HX  95
MERIDIAN NAS   PTSUNNY   91  66  43 NW8       29.98F HX  93
RAYMOND        FAIR      90  84  84 NW8       30.00F HX 115
VICKSBURG      PTSUNNY   90  75  61 VRB3      29.99F HX 100
$$

MSZ059>079-252200-
SOUTH MISSISSIPPI

CITY           SKY/WX    TMP DP  RH WIND       PRES   REMARKS
BROOKHAVEN     FAIR      90  73  58 W6        30.01F HX  98
COLUMBIA       FAIR      93  73  52 N8        29.96F HX 102
HATTIESBURG    SUNNY     92  71  50 NW7       29.97S HX  98
MCCOMB         MOSUNNY   91  70  49 W7        29.98F HX  96
NATCHEZ        SUNNY     90  73  58 CALM      30.00S HX  98
PINE BELT      MOSUNNY   93  70  46 NW8G16    29.99S HX  99
$$

MSZ080>082-252200-
COASTAL MISSISSIPPI

CITY           SKY/WX    TMP DP  RH WIND       PRES   REMARKS
BAY ST LOUIS   PTSUNNY  N/A N/A N/A SW13      29.97F
BILOXI         CLOUDY    86  75  68 SW15      29.97F HX  95
PASCAGOULA     CLOUDY    83  75  77 SW5       29.98S HX  90
GULFPORT       PTSUNNY   89  74  60 VRB7      29.96F HX  98
$$



USA.gov is the U.S. government's official web portal to all federal, state and local government web resources and services.